| time (UTC) | temp F | wind direction | speed MPH | gust MPH | rain 1hr in | rain 24hr in | rain mn in | humidity % | barometer mb |
| 20260903123602 | 78 | 325 | 0.0 | 3.0 | 0.00 | 0.00 | 0.00 | 71 | |
| 20260903123102 | 77 | 325 | 1.0 | 2.0 | 0.00 | 0.00 | 0.00 | 71 | |
| 20260903122601 | 77 | 333 | 1.0 | 2.0 | 0.00 | 0.00 | 0.00 | 71 | |
| 20260903122055 | 77 | 328 | 1.0 | 3.0 | 0.00 | 0.00 | 0.00 | 71 | |
| 20260903121549 | 77 | 326 | 0.0 | 2.0 | 0.00 | 0.00 | 0.00 | 71 | |
| 20260903121045 | 77 | 345 | 1.0 | 1.0 | 0.00 | 0.00 | 0.00 | 72 | |
| 20260903120544 | 77 | 335 | 1.0 | 3.0 | 0.00 | 0.00 | 0.00 | 72 | |
| 20260903120038 | 77 | 327 | 1.0 | 2.0 | 0.00 | 0.00 | 0.00 | 71 | |
| 20260903115537 | 77 | 325 | 1.0 | 2.0 | 0.00 | 0.00 | 0.00 | 71 | |
| 20260903115032 | 77 | 327 | 0.0 | 1.0 | 0.00 | 0.00 | 0.00 | 71 | |
| 20260903114527 | 77 | 333 | 1.0 | 1.0 | 0.00 | 0.00 | 0.00 | 71 | |
| 20260903114023 | 77 | 326 | 0.0 | 2.0 | 0.00 | 0.00 | 0.00 | 71 | |
| 20260903113518 | 77 | 329 | 0.0 | 1.0 | 0.00 | 0.00 | 0.00 | 71 | |
| 20260903113014 | 77 | 326 | 0.0 | 1.0 | 0.00 | 0.00 | 0.00 | 71 | |
| 20260903112510 | 77 | 327 | 1.0 | 2.0 | 0.00 | 0.00 | 0.00 | 70 | |
| 20260903112010 | 78 | 322 | 0.0 | 1.0 | 0.00 | 0.00 | 0.00 | 70 | |
| 20260903111503 | 78 | 355 | 2.0 | 2.0 | 0.00 | 0.00 | 0.00 | 70 | |
| 20260903111000 | 78 | 344 | 2.0 | 2.0 | 0.00 | 0.00 | 0.00 | 70 | |
| 20260903110455 | 78 | 344 | 1.0 | 2.0 | 0.00 | 0.00 | 0.00 | 69 | |
| 20260903105949 | 78 | 327 | 1.0 | 2.0 | 0.00 | 0.00 | 0.00 | 69 | |
| 20260903105445 | 78 | 327 | 1.0 | 2.0 | 0.00 | 0.00 | 0.00 | 69 | |
| 20260903104944 | 78 | 325 | 0.0 | 1.0 | 0.00 | 0.00 | 0.00 | 69 | |
| 20260903104443 | 78 | 323 | 1.0 | 2.0 | 0.00 | 0.00 | 0.00 | 69 | |
| 20260903103941 | 79 | 328 | 1.0 | 1.0 | 0.00 | 0.00 | 0.00 | 68 | |
| 20260903103436 | 79 | 325 | 1.0 | 2.0 | 0.00 | 0.00 | 0.00 | 68 | |
| 20260903102932 | 79 | 326 | 0.0 | 1.0 | 0.00 | 0.00 | 0.00 | 68 | |
| 20260903102427 | 79 | 329 | 1.0 | 2.0 | 0.00 | 0.00 | 0.00 | 68 | |
| 20260903101925 | 79 | 330 | 1.0 | 2.0 | 0.00 | 0.00 | 0.00 | 68 | |
| 20260903101421 | 79 | 322 | 0.0 | 2.0 | 0.00 | 0.00 | 0.00 | 68 | |
| 20260903100916 | 79 | 327 | 1.0 | 3.0 | 0.00 | 0.00 | 0.00 | 67 | |
| 20260903100411 | 79 | 330 | 2.0 | 2.0 | 0.00 | 0.00 | 0.00 | 67 | |
| 20260903095908 | 79 | 326 | 1.0 | 2.0 | 0.00 | 0.00 | 0.00 | 67 | |
| 20260903095403 | 79 | 348 | 1.0 | 2.0 | 0.00 | 0.00 | 0.00 | 67 | |
| 20260903094858 | 79 | 323 | 1.0 | 2.0 | 0.00 | 0.00 | 0.00 | 67 | |
| 20260903094357 | 79 | 329 | 0.0 | 5.0 | 0.00 | 0.00 | 0.00 | 67 | |
| 20260903093854 | 79 | 323 | 0.0 | 2.0 | 0.00 | 0.00 | 0.00 | 67 | |
| 20260903093348 | 79 | 323 | 0.0 | 2.0 | 0.00 | 0.00 | 0.00 | 66 | |
| 20260903092844 | 80 | 325 | 1.0 | 5.0 | 0.00 | 0.00 | 0.00 | 66 | |
| 20260903092338 | 80 | 327 | 0.0 | 2.0 | 0.00 | 0.00 | 0.00 | 65 | |
| 20260903091837 | 80 | 326 | 0.0 | 2.0 | 0.00 | 0.00 | 0.00 | 65 | |
| 20260903091336 | 80 | 324 | 0.0 | 1.0 | 0.00 | 0.00 | 0.00 | 65 | |
| 20260903090831 | 80 | 357 | 2.0 | 3.0 | 0.00 | 0.00 | 0.00 | 64 | |
| 20260903090326 | 80 | 358 | 1.0 | 2.0 | 0.00 | 0.00 | 0.00 | 64 | |
| 20260903085819 | 80 | 341 | 1.0 | 3.0 | 0.00 | 0.00 | 0.00 | 64 | |
| 20260903085319 | 81 | 326 | 1.0 | 2.0 | 0.00 | 0.00 | 0.00 | 64 | |
| 20260903084818 | 81 | 337 | 3.0 | 3.0 | 0.00 | 0.00 | 0.00 | 63 | |
| 20260903084317 | 81 | 324 | 1.0 | 3.0 | 0.00 | 0.00 | 0.00 | 63 | |
| 20260903083813 | 81 | 326 | 1.0 | 3.0 | 0.00 | 0.00 | 0.00 | 63 | |
| 20260903083308 | 81 | 329 | 1.0 | 2.0 | 0.00 | 0.00 | 0.00 | 63 | |
| 20260903082807 | 81 | 346 | 3.0 | 3.0 | 0.00 | 0.00 | 0.00 | 63 | |
| 20260903082306 | 80 | 356 | 2.0 | 2.0 | 0.00 | 0.00 | 0.00 | 63 | |
| 20260903081803 | 80 | 333 | 2.0 | 2.0 | 0.00 | 0.00 | 0.00 | 63 | |
| 20260903081258 | 80 | 331 | 1.0 | 2.0 | 0.00 | 0.00 | 0.00 | 63 | |
| 20260903080755 | 81 | 333 | 0.0 | 1.0 | 0.00 | 0.00 | 0.00 | 63 | |
| 20260903080252 | 81 | 329 | 1.0 | 3.0 | 0.00 | 0.00 | 0.00 | 62 | |
| 20260903075751 | 81 | 328 | 1.0 | 2.0 | 0.00 | 0.00 | 0.00 | 62 | |
| 20260903075246 | 81 | 333 | 2.0 | 3.0 | 0.00 | 0.00 | 0.00 | 62 | |
| 20260903074745 | 81 | 343 | 1.0 | 2.0 | 0.00 | 0.00 | 0.00 | 62 | |
| 20260903074240 | 81 | 324 | 1.0 | 3.0 | 0.00 | 0.00 | 0.00 | 62 | |
| 20260903073736 | 81 | 324 | 0.0 | 1.0 | 0.00 | 0.00 | 0.00 | 62 | |
| 20260903073231 | 81 | 324 | 1.0 | 1.0 | 0.00 | 0.00 | 0.00 | 62 | |
| 20260903072727 | 81 | 331 | 1.0 | 1.0 | 0.00 | 0.00 | 0.00 | 62 | |
| 20260903072223 | 81 | 327 | 1.0 | 1.0 | 0.00 | 0.00 | 0.00 | 63 | |
| 20260903071720 | 80 | 326 | 0.0 | 1.0 | 0.00 | 0.00 | 0.00 | 63 | |
| 20260903071215 | 80 | 324 | 0.0 | 0.0 | 0.00 | 0.00 | 0.00 | 64 | |
| 20260903070715 | 81 | 324 | 0.0 | 0.0 | 0.00 | 0.00 | 0.00 | 63 | |
| 20260903070210 | 81 | 328 | 0.0 | 1.0 | 0.00 | 0.00 | 0.00 | 62 | |
| 20260903065705 | 81 | 323 | 0.0 | 0.0 | 0.00 | 0.00 | 0.00 | 63 | |
| 20260903065159 | 81 | 326 | 0.0 | 0.0 | 0.00 | 0.00 | 0.00 | 63 | |
| 20260903064658 | 81 | 326 | 0.0 | 1.0 | 0.00 | 0.00 | 0.00 | 62 | |
| 20260903064154 | 81 | 324 | 0.0 | 1.0 | 0.00 | 0.00 | 0.00 | 62 | |
| 20260903063650 | 81 | 328 | 0.0 | 1.0 | 0.00 | 0.00 | 0.00 | 62 | |
| 20260903063150 | 81 | 329 | 1.0 | 2.0 | 0.00 | 0.00 | 0.00 | 61 | |
| 20260903062646 | 81 | 325 | 0.0 | 1.0 | 0.00 | 0.00 | 0.00 | 62 | |
| 20260903062140 | 81 | 330 | 0.0 | 2.0 | 0.00 | 0.00 | 0.00 | 61 | |
| 20260903061636 | 81 | 330 | 1.0 | 1.0 | 0.00 | 0.00 | 0.00 | 61 | |
| 20260903061135 | 81 | 325 | 0.0 | 1.0 | 0.00 | 0.00 | 0.00 | 62 | |
| 20260903060630 | 81 | 324 | 0.0 | 0.0 | 0.00 | 0.00 | 0.00 | 62 | |
| 20260903060126 | 81 | 325 | 0.0 | 0.0 | 0.00 | 0.00 | 0.00 | 61 | |
| 20260903055623 | 82 | 330 | 0.0 | 0.0 | 0.00 | 0.00 | 0.00 | 62 | |
| 20260903055122 | 82 | 327 | 1.0 | 1.0 | 0.00 | 0.00 | 0.00 | 61 | |
| 20260903054616 | 82 | 340 | 1.0 | 1.0 | 0.00 | 0.00 | 0.00 | 61 | |
| 20260903054112 | 82 | 329 | 1.0 | 1.0 | 0.00 | 0.00 | 0.00 | 61 | |
| 20260903053608 | 82 | 328 | 0.0 | 1.0 | 0.00 | 0.00 | 0.00 | 61 | |
| 20260903053104 | 82 | 328 | 0.0 | 1.0 | 0.00 | 0.00 | 0.00 | 60 | |
| 20260903052559 | 82 | 331 | 1.0 | 1.0 | 0.00 | 0.00 | 0.00 | 60 | |
| 20260903052055 | 82 | 328 | 1.0 | 1.0 | 0.00 | 0.00 | 0.00 | 60 | |
| 20260903051555 | 82 | 328 | 0.0 | 0.0 | 0.00 | 0.00 | 0.00 | 60 | |
| 20260903051050 | 82 | 326 | 0.0 | 1.0 | 0.00 | 0.00 | 0.00 | 60 | |
| 20260903050550 | 82 | 331 | 1.0 | 1.0 | 0.00 | 0.00 | 0.00 | 60 | |
| 20260903050045 | 82 | 328 | 0.0 | 1.0 | 0.00 | 0.00 | 0.00 | 60 | |
| 20260903045544 | 82 | 325 | 0.0 | 1.0 | 0.00 | 0.00 | 0.00 | 60 | |
| 20260903045042 | 82 | 322 | 0.0 | 0.0 | 0.00 | 0.00 | 0.00 | 61 | |
| 20260903044537 | 81 | 325 | 0.0 | 0.0 | 0.00 | 0.00 | 0.00 | 61 | |
| 20260903044032 | 82 | 322 | 0.0 | 0.0 | 0.00 | 0.00 | 0.00 | 62 | |
| 20260903043528 | 82 | 321 | 0.0 | 0.0 | 0.00 | 0.00 | 0.00 | 61 | |
| 20260903043027 | 82 | 326 | 0.0 | 0.0 | 0.00 | 0.00 | 0.00 | 61 | |
| 20260903042522 | 83 | 324 | 0.0 | 0.0 | 0.00 | 0.00 | 0.00 | 60 | |
| 20260903042018 | 83 | 321 | 0.0 | 0.0 | 0.00 | 0.00 | 0.00 | 59 | |
| 20260903041515 | 84 | 325 | 0.0 | 0.0 | 0.00 | 0.00 | 0.00 | 59 | |
| 20260903041009 | 84 | 328 | 0.0 | 1.0 | 0.00 | 0.00 | 0.00 | 57 | |
| 20260903040508 | 84 | 326 | 1.0 | 1.0 | 0.00 | 0.00 | 0.00 | 57 | |
| 20260903040008 | 84 | 324 | 0.0 | 0.0 | 0.00 | 0.00 | 0.00 | 57 | |
| 20260903035500 | 84 | 324 | 0.0 | 0.0 | 0.00 | 0.00 | 0.00 | 57 | |
| 20260903034955 | 85 | 318 | 0.0 | 0.0 | 0.00 | 0.00 | 0.00 | 57 | |
| 20260903034450 | 85 | 324 | 0.0 | 1.0 | 0.00 | 0.00 | 0.00 | 56 | |
| 20260903033950 | 85 | 338 | 0.0 | 1.0 | 0.00 | 0.00 | 0.00 | 56 | |
| 20260903033445 | 85 | 324 | 0.0 | 0.0 | 0.00 | 0.00 | 0.00 | 57 | |
| 20260903032940 | 85 | 331 | 1.0 | 1.0 | 0.00 | 0.00 | 0.00 | 55 | |
| 20260903032436 | 85 | 325 | 0.0 | 2.0 | 0.00 | 0.00 | 0.00 | 55 | |
| 20260903031931 | 86 | 326 | 0.0 | 1.0 | 0.00 | 0.00 | 0.00 | 55 | |
| 20260903031425 | 86 | 326 | 0.0 | 1.0 | 0.00 | 0.00 | 0.00 | 55 | |
| 20260903030920 | 86 | 326 | 1.0 | 1.0 | 0.00 | 0.00 | 0.00 | 55 | |
| 20260903030416 | 86 | 318 | 0.0 | 1.0 | 0.00 | 0.00 | 0.00 | 56 | |
| 20260903025912 | 86 | 324 | 0.0 | 1.0 | 0.00 | 0.00 | 0.00 | 55 | |
| 20260903025407 | 86 | 320 | 0.0 | 1.0 | 0.00 | 0.00 | 0.00 | 57 | |
| 20260903024902 | 86 | 324 | 0.0 | 1.0 | 0.00 | 0.00 | 0.00 | 56 | |
| 20260903024356 | 85 | 329 | 1.0 | 1.0 | 0.00 | 0.00 | 0.00 | 55 | |
| 20260903023851 | 85 | 326 | 0.0 | 0.0 | 0.00 | 0.00 | 0.00 | 57 | |
| 20260903023347 | 85 | 326 | 0.0 | 1.0 | 0.00 | 0.00 | 0.00 | 56 | |
| 20260903022842 | 85 | 324 | 0.0 | 1.0 | 0.00 | 0.00 | 0.00 | 57 | |
| 20260903022341 | 85 | 324 | 0.0 | 0.0 | 0.00 | 0.00 | 0.00 | 57 | |
| 20260903021840 | 85 | 319 | 0.0 | 0.0 | 0.00 | 0.00 | 0.00 | 57 | |
| 20260903021336 | 86 | 324 | 0.0 | 0.0 | 0.00 | 0.00 | 0.00 | 56 | |
| 20260903020835 | 85 | 321 | 0.0 | 0.0 | 0.00 | 0.00 | 0.00 | 56 | |
| 20260903020331 | 86 | 320 | 0.0 | 0.0 | 0.00 | 0.00 | 0.00 | 55 | |
| 20260903015825 | 86 | 320 | 0.0 | 0.0 | 0.00 | 0.00 | 0.00 | 54 | |
| 20260903015320 | 86 | 321 | 0.0 | 0.0 | 0.00 | 0.00 | 0.00 | 54 | |
| 20260903014815 | 86 | 329 | 0.0 | 1.0 | 0.00 | 0.00 | 0.00 | 54 | |
| 20260903014310 | 86 | 320 | 0.0 | 1.0 | 0.00 | 0.00 | 0.00 | 55 | |
| 20260903013805 | 86 | 320 | 0.0 | 0.0 | 0.00 | 0.00 | 0.00 | 54 | |
| 20260903013304 | 87 | 320 | 0.0 | 0.0 | 0.00 | 0.00 | 0.00 | 54 | |
| 20260903012803 | 87 | 320 | 0.0 | 0.0 | 0.00 | 0.00 | 0.00 | 53 | |
| 20260903012257 | 88 | 320 | 0.0 | 0.0 | 0.00 | 0.00 | 0.00 | 52 | |
| 20260903011751 | 88 | 320 | 0.0 | 0.0 | 0.00 | 0.00 | 0.00 | 51 | |
| 20260903011251 | 89 | 320 | 0.0 | 0.0 | 0.00 | 0.00 | 0.00 | 50 | |
| 20260903010746 | 89 | 324 | 0.0 | 0.0 | 0.00 | 0.00 | 0.00 | 50 | |
| 20260903010242 | 89 | 330 | 1.0 | 1.0 | 0.00 | 0.00 | 0.00 | 49 | |
| 20260903005740 | 89 | 322 | 0.0 | 0.0 | 0.00 | 0.00 | 0.00 | 50 | |
| 20260903005235 | 89 | 320 | 0.0 | 0.0 | 0.00 | 0.00 | 0.00 | 49 | |
| 20260903004731 | 90 | 320 | 0.0 | 0.0 | 0.00 | 0.00 | 0.00 | 49 | |
| 20260903004226 | 91 | 320 | 0.0 | 1.0 | 0.00 | 0.00 | 0.00 | 49 | |
| 20260903003722 | 91 | 320 | 0.0 | 0.0 | 0.00 | 0.00 | 0.00 | 47 | |
| 20260903003217 | 92 | 320 | 0.0 | 1.0 | 0.00 | 0.00 | 0.00 | 46 | |
| 20260903002711 | 93 | 320 | 0.0 | 0.0 | 0.00 | 0.00 | 0.00 | 44 | |
| 20260903002206 | 93 | 320 | 0.0 | 0.0 | 0.00 | 0.00 | 0.00 | 43 | |
| 20260903001700 | 94 | 326 | 0.0 | 1.0 | 0.00 | 0.00 | 0.00 | 43 | |
| 20260903001155 | 94 | 320 | 0.0 | 1.0 | 0.00 | 0.00 | 0.00 | 42 | |
| 20260903000651 | 95 | 334 | 2.0 | 2.0 | 0.00 | 0.00 | 0.00 | 41 | |
| 20260903000150 | 95 | 319 | 0.0 | 0.0 | 0.00 | 0.00 | 0.00 | 41 | |
| 20260902235649 | 95 | 323 | 0.0 | 1.0 | 0.00 | 0.00 | 0.00 | 41 | |
| 20260902235144 | 95 | 327 | 1.0 | 2.0 | 0.00 | 0.00 | 0.00 | 41 | |
| 20260902234644 | 95 | 337 | 0.0 | 1.0 | 0.00 | 0.00 | 0.00 | 41 | |
| 20260902234143 | 95 | 319 | 0.0 | 2.0 | 0.00 | 0.00 | 0.00 | 40 | |
| 20260902233638 | 95 | 340 | 2.0 | 2.0 | 0.00 | 0.00 | 0.00 | 40 | |
| 20260902233137 | 96 | 341 | 3.0 | 5.0 | 0.00 | 0.00 | 0.00 | 40 | |
| 20260902232637 | 96 | 349 | 0.0 | 1.0 | 0.00 | 0.00 | 0.00 | 41 | |
| 20260902232136 | 95 | 331 | 1.0 | 2.0 | 0.00 | 0.00 | 0.00 | 40 | |
| 20260902231636 | 95 | 330 | 0.0 | 2.0 | 0.00 | 0.00 | 0.00 | 40 | |
| 20260902231130 | 96 | 343 | 1.0 | 2.0 | 0.00 | 0.00 | 0.00 | 40 | |
| 20260902230626 | 96 | 330 | 2.0 | 3.0 | 0.00 | 0.00 | 0.00 | 40 | |
| 20260902230124 | 96 | 335 | 1.0 | 5.0 | 0.00 | 0.00 | 0.00 | 40 | |
| 20260902225620 | 96 | 332 | 1.0 | 3.0 | 0.00 | 0.00 | 0.00 | 40 | |
| 20260902225119 | 96 | 326 | 1.0 | 2.0 | 0.00 | 0.00 | 0.00 | 40 | |
| 20260902224618 | 96 | 349 | 1.0 | 2.0 | 0.00 | 0.00 | 0.00 | 40 | |
| 20260902224114 | 96 | 335 | 1.0 | 7.0 | 0.00 | 0.00 | 0.00 | 40 | |
| 20260902223610 | 95 | 333 | 0.0 | 2.0 | 0.00 | 0.00 | 0.00 | 40 | |
| 20260902223109 | 96 | 355 | 1.0 | 3.0 | 0.00 | 0.00 | 0.00 | 40 | |
| 20260902222608 | 96 | 326 | 0.0 | 1.0 | 0.00 | 0.00 | 0.00 | 41 | |
| 20260902222107 | 96 | 320 | 0.0 | 1.0 | 0.00 | 0.00 | 0.00 | 41 | |
| 20260902221601 | 96 | 330 | 1.0 | 2.0 | 0.00 | 0.00 | 0.00 | 39 | |
| 20260902221056 | 96 | 324 | 2.0 | 3.0 | 0.00 | 0.00 | 0.00 | 39 | |
| 20260902220552 | 96 | 330 | 1.0 | 2.0 | 0.00 | 0.00 | 0.00 | 40 | |
| 20260902220046 | 96 | 327 | 2.0 | 5.0 | 0.00 | 0.00 | 0.00 | 39 | |
| 20260902215542 | 96 | 43 | 2.0 | 3.0 | 0.00 | 0.00 | 0.00 | 39 | |
| 20260902215037 | 97 | 319 | 0.0 | 2.0 | 0.00 | 0.00 | 0.00 | 40 | |
| 20260902214532 | 97 | 340 | 3.0 | 3.0 | 0.00 | 0.00 | 0.00 | 40 | |
| 20260902214031 | 97 | 358 | 1.0 | 3.0 | 0.00 | 0.00 | 0.00 | 39 | |
| 20260902213527 | 97 | 323 | 0.0 | 2.0 | 0.00 | 0.00 | 0.00 | 41 | |
| 20260902213026 | 97 | 313 | 4.0 | 5.0 | 0.00 | 0.00 | 0.00 | 40 | |
| 20260902212522 | 96 | 318 | 0.0 | 1.0 | 0.00 | 0.00 | 0.00 | 41 | |
| 20260902212018 | 96 | 332 | 1.0 | 2.0 | 0.00 | 0.00 | 0.00 | 41 | |
| 20260902211514 | 97 | 313 | 2.0 | 3.0 | 0.00 | 0.00 | 0.00 | 41 | |
| 20260902211009 | 96 | 322 | 2.0 | 3.0 | 0.00 | 0.00 | 0.00 | 42 | |
| 20260902210509 | 96 | 335 | 2.0 | 3.0 | 0.00 | 0.00 | 0.00 | 41 | |
| 20260902210008 | 96 | 323 | 1.0 | 5.0 | 0.00 | 0.00 | 0.00 | 42 | |
| 20260902205502 | 96 | 343 | 3.0 | 5.0 | 0.00 | 0.00 | 0.00 | 41 | |
| 20260902204958 | 97 | 339 | 2.0 | 5.0 | 0.00 | 0.00 | 0.00 | 42 | |
| 20260902204457 | 96 | 327 | 2.0 | 5.0 | 0.00 | 0.00 | 0.00 | 40 | |
| 20260902203953 | 96 | 2 | 2.0 | 8.0 | 0.00 | 0.00 | 0.00 | 41 | |
| 20260902203448 | 96 | 313 | 4.0 | 6.0 | 0.00 | 0.00 | 0.00 | 40 | |
| 20260902202946 | 96 | 343 | 2.0 | 5.0 | 0.00 | 0.00 | 0.00 | 41 | |
| 20260902202443 | 95 | 319 | 0.0 | 2.0 | 0.00 | 0.00 | 0.00 | 43 | |
| 20260902201940 | 96 | 321 | 1.0 | 2.0 | 0.00 | 0.00 | 0.00 | 42 | |
| 20260902201434 | 97 | 345 | 4.0 | 7.0 | 0.00 | 0.00 | 0.00 | 41 | |
| 20260902200934 | 96 | 330 | 2.0 | 5.0 | 0.00 | 0.00 | 0.00 | 41 | |
| 20260902200430 | 96 | 342 | 3.0 | 3.0 | 0.00 | 0.00 | 0.00 | 44 | |
| 20260902195925 | 96 | 1 | 2.0 | 5.0 | 0.00 | 0.00 | 0.00 | 43 | |
| 20260902195420 | 96 | 329 | 1.0 | 3.0 | 0.00 | 0.00 | 0.00 | 44 | |
| 20260902194914 | 96 | 319 | 0.0 | 1.0 | 0.00 | 0.00 | 0.00 | 45 | |
| 20260902194414 | 96 | 331 | 2.0 | 3.0 | 0.00 | 0.00 | 0.00 | 44 | |
| 20260902193909 | 95 | 315 | 0.0 | 2.0 | 0.00 | 0.00 | 0.00 | 46 | |
| 20260902193406 | 96 | 326 | 1.0 | 2.0 | 0.00 | 0.00 | 0.00 | 43 | |
| 20260902192904 | 96 | 336 | 2.0 | 5.0 | 0.00 | 0.00 | 0.00 | 42 | |
| 20260902192403 | 96 | 5 | 2.0 | 2.0 | 0.00 | 0.00 | 0.00 | 43 | |
| 20260902191856 | 96 | 293 | 1.0 | 2.0 | 0.00 | 0.00 | 0.00 | 45 | |
| 20260902191353 | 96 | 320 | 2.0 | 5.0 | 0.00 | 0.00 | 0.00 | 43 | |
| 20260902190847 | 96 | 9 | 3.0 | 5.0 | 0.00 | 0.00 | 0.00 | 44 | |
| 20260902190347 | 95 | 303 | 1.0 | 2.0 | 0.00 | 0.00 | 0.00 | 47 | |
| 20260902185843 | 95 | 292 | 2.0 | 2.0 | 0.00 | 0.00 | 0.00 | 45 | |
| 20260902185338 | 96 | 46 | 4.0 | 7.0 | 0.00 | 0.00 | 0.00 | 44 | |
| 20260902184834 | 96 | 318 | 2.0 | 5.0 | 0.00 | 0.00 | 0.00 | 45 | |
| 20260902184329 | 95 | 72 | 1.0 | 3.0 | 0.00 | 0.00 | 0.00 | 47 | |
| 20260902183825 | 95 | 315 | 1.0 | 2.0 | 0.00 | 0.00 | 0.00 | 48 | |
| 20260902183321 | 95 | 354 | 1.0 | 2.0 | 0.00 | 0.00 | 0.00 | 46 | |
| 20260902182817 | 95 | 315 | 2.0 | 3.0 | 0.00 | 0.00 | 0.00 | 46 | |
| 20260902182313 | 95 | 24 | 2.0 | 3.0 | 0.00 | 0.00 | 0.00 | 46 | |
| 20260902181809 | 95 | 303 | 1.0 | 2.0 | 0.00 | 0.00 | 0.00 | 48 | |
| 20260902181304 | 94 | 320 | 1.0 | 5.0 | 0.00 | 0.00 | 0.00 | 48 | |
| 20260902180758 | 94 | 347 | 2.0 | 2.0 | 0.00 | 0.00 | 0.00 | 46 | |
| 20260902180254 | 94 | 333 | 3.0 | 5.0 | 0.00 | 0.00 | 0.00 | 47 | |
| 20260902175749 | 94 | 2 | 1.0 | 5.0 | 0.00 | 0.00 | 0.00 | 50 | |
| 20260902175244 | 94 | 306 | 1.0 | 3.0 | 0.00 | 0.00 | 0.00 | 51 | |
| 20260902174740 | 93 | 322 | 0.0 | 2.0 | 0.00 | 0.00 | 0.00 | 50 | |
| 20260902174236 | 93 | 325 | 0.0 | 3.0 | 0.00 | 0.00 | 0.00 | 50 | |
| 20260902173732 | 93 | 323 | 1.0 | 2.0 | 0.00 | 0.00 | 0.00 | 51 | |
| 20260902173231 | 93 | 327 | 1.0 | 2.0 | 0.00 | 0.00 | 0.00 | 52 | |
| 20260902172726 | 92 | 351 | 1.0 | 1.0 | 0.00 | 0.00 | 0.00 | 52 | |
| 20260902172226 | 92 | 334 | 1.0 | 1.0 | 0.00 | 0.00 | 0.00 | 52 | |
| 20260902171721 | 92 | 269 | 1.0 | 6.0 | 0.00 | 0.00 | 0.00 | 51 | |
| 20260902171216 | 92 | 354 | 1.0 | 2.0 | 0.00 | 0.00 | 0.00 | 54 | |
| 20260902170712 | 92 | 321 | 1.0 | 2.0 | 0.00 | 0.00 | 0.00 | 54 | |
| 20260902170208 | 92 | 348 | 1.0 | 7.0 | 0.00 | 0.00 | 0.00 | 54 | |
| 20260902165702 | 91 | 325 | 1.0 | 3.0 | 0.00 | 0.00 | 0.00 | 54 | |
| 20260902165156 | 91 | 311 | 1.0 | 2.0 | 0.00 | 0.00 | 0.00 | 53 | |
| 20260902164652 | 91 | 334 | 2.0 | 7.0 | 0.00 | 0.00 | 0.00 | 54 | |
| 20260902164150 | 90 | 321 | 0.0 | 2.0 | 0.00 | 0.00 | 0.00 | 56 | |
| 20260902163646 | 90 | 354 | 1.0 | 2.0 | 0.00 | 0.00 | 0.00 | 55 | |
| 20260902163145 | 90 | 326 | 0.0 | 2.0 | 0.00 | 0.00 | 0.00 | 55 | |
| 20260902162644 | 89 | 332 | 2.0 | 3.0 | 0.00 | 0.00 | 0.00 | 56 | |
| 20260902162138 | 89 | 323 | 0.0 | 2.0 | 0.00 | 0.00 | 0.00 | 57 | |
| 20260902161634 | 89 | 320 | 2.0 | 3.0 | 0.00 | 0.00 | 0.00 | 56 | |
| 20260902161130 | 88 | 341 | 1.0 | 5.0 | 0.00 | 0.00 | 0.00 | 57 | |
| 20260902160626 | 88 | 319 | 2.0 | 3.0 | 0.00 | 0.00 | 0.00 | 58 | |
| 20260902160121 | 88 | 349 | 1.0 | 5.0 | 0.00 | 0.00 | 0.00 | 57 | |
| 20260902155619 | 88 | 320 | 1.0 | 2.0 | 0.00 | 0.00 | 0.00 | 58 | |
| 20260902155118 | 88 | 327 | 2.0 | 3.0 | 0.00 | 0.00 | 0.00 | 57 | |
| 20260902154613 | 88 | 310 | 1.0 | 3.0 | 0.00 | 0.00 | 0.00 | 58 | |
| 20260902154108 | 88 | 325 | 1.0 | 5.0 | 0.00 | 0.00 | 0.00 | 58 | |
| 20260902153607 | 88 | 329 | 2.0 | 2.0 | 0.00 | 0.00 | 0.00 | 59 | |
| 20260902153102 | 87 | 321 | 1.0 | 2.0 | 0.00 | 0.00 | 0.00 | 59 | |
| 20260902152559 | 87 | 339 | 1.0 | 3.0 | 0.00 | 0.00 | 0.00 | 59 | |
| 20260902152054 | 86 | 320 | 1.0 | 2.0 | 0.00 | 0.00 | 0.00 | 61 | |
| 20260902151549 | 86 | 338 | 1.0 | 6.0 | 0.00 | 0.00 | 0.00 | 62 | |
| 20260902151049 | 86 | 358 | 1.0 | 2.0 | 0.00 | 0.00 | 0.00 | 61 | |
| 20260902150544 | 86 | 337 | 1.0 | 1.0 | 0.00 | 0.00 | 0.00 | 62 | |
| 20260902150040 | 85 | 346 | 2.0 | 2.0 | 0.00 | 0.00 | 0.00 | 64 | |
| 20260902145535 | 84 | 316 | 1.0 | 1.0 | 0.00 | 0.00 | 0.00 | 63 | |
| 20260902145034 | 84 | 359 | 0.0 | 5.0 | 0.00 | 0.00 | 0.00 | 63 | |
| 20260902144531 | 84 | 328 | 0.0 | 2.0 | 0.00 | 0.00 | 0.00 | 65 | |
| 20260902144032 | 83 | 326 | 0.0 | 0.0 | 0.00 | 0.00 | 0.00 | 66 | |
| 20260902143532 | 83 | 321 | 0.0 | 1.0 | 0.00 | 0.00 | 0.00 | 65 | |
| 20260902143028 | 83 | 356 | 1.0 | 3.0 | 0.00 | 0.00 | 0.00 | 66 | |
| 20260902142523 | 82 | 339 | 0.0 | 1.0 | 0.00 | 0.00 | 0.00 | 66 | |
| 20260902142018 | 82 | 324 | 0.0 | 0.0 | 0.00 | 0.00 | 0.00 | 66 | |
| 20260902141513 | 82 | 335 | 1.0 | 2.0 | 0.00 | 0.00 | 0.00 | 66 | |
| 20260902141008 | 82 | 330 | 2.0 | 5.0 | 0.00 | 0.00 | 0.00 | 65 | |
| 20260902140503 | 82 | 325 | 0.0 | 1.0 | 0.00 | 0.00 | 0.00 | 66 | |
| 20260902140002 | 82 | 346 | 2.0 | 3.0 | 0.00 | 0.00 | 0.00 | 66 | |
| 20260902135458 | 81 | 325 | 1.0 | 2.0 | 0.00 | 0.00 | 0.00 | 66 | |
| 20260902134958 | 81 | 326 | 1.0 | 2.0 | 0.00 | 0.00 | 0.00 | 66 | |
| 20260902134454 | 80 | 339 | 2.0 | 2.0 | 0.00 | 0.00 | 0.00 | 66 | |
| 20260902133954 | 80 | 321 | 0.0 | 2.0 | 0.00 | 0.00 | 0.00 | 67 | |
| 20260902133448 | 80 | 325 | 0.0 | 2.0 | 0.00 | 0.00 | 0.00 | 67 | |
| 20260902132943 | 79 | 333 | 1.0 | 2.0 | 0.00 | 0.00 | 0.00 | 67 | |
| 20260902132439 | 79 | 326 | 1.0 | 1.0 | 0.00 | 0.00 | 0.00 | 68 | |
| 20260902131933 | 78 | 323 | 2.0 | 3.0 | 0.00 | 0.00 | 0.00 | 68 | |
| 20260902131430 | 78 | 325 | 1.0 | 5.0 | 0.00 | 0.00 | 0.00 | 68 | |
| 20260902130929 | 78 | 323 | 1.0 | 5.0 | 0.00 | 0.00 | 0.00 | 69 | |
| 20260902130426 | 78 | 334 | 1.0 | 5.0 | 0.00 | 0.00 | 0.00 | 69 | |
| 20260902125920 | 78 | 331 | 1.0 | 1.0 | 0.00 | 0.00 | 0.00 | 69 | |
| 20260902125416 | 78 | 331 | 2.0 | 5.0 | 0.00 | 0.00 | 0.00 | 68 | |
| 20260902124912 | 77 | 329 | 1.0 | 2.0 | 0.00 | 0.00 | 0.00 | 69 | |
| 20260902124408 | 77 | 332 | 1.0 | 2.0 | 0.00 | 0.00 | 0.00 | 69 | |
| 20260902123903 | 76 | 339 | 3.0 | 3.0 | 0.00 | 0.00 | 0.00 | 70 |